Boone, IA

3:46 PM CDT on August 21, 2017 (GMT -0500)
Boone Municipal

Weather History for KBNW - November, 2012

Change the Weather History Date:

Wednesday, November 7, 2012

  Actual Average Record
Temperature  
Mean Temperature 42 °F -  
Max Temperature 48 °F 49 °F 77 °F (1980)
Min Temperature 35 °F 28 °F -99 °F (1998)
Degree Days  
Heating Degree Days 24    
Moisture  
Dew Point 34 °F    
Average Humidity 72    
Maximum Humidity 85    
Minimum Humidity 55    
Precipitation  
Precipitation 0.00 in - - ()
Sea Level Pressure  
Sea Level Pressure 30.10 in    
Wind  
Wind Speed 10 mph (North)    
Max Wind Speed 18 mph    
Max Gust Speed 25 mph    
Visibility 10 miles    
Events Rain    
Averages and records for this station are not official NWS values.
T = Trace of Precipitation, MM = Missing Value Source: NWS Daily Summary

Daily Weather History Graph

Daily Weather History Graph

Search for Another Location

Airport or City:

Trip Planner

Search our weather history database for the weather conditions in past years. The results will help you decide how hot, cold, wet, or windy it might be!

Date:

Astronomy

Nov. 07, 2012 Rise Set
Actual Time 6:56 AM CST 5:01 PM CST
Civil Twilight 6:26 AM CST 5:31 PM CST
Nautical Twilight 5:53 AM CST 6:04 PM CST
Astronomical Twilight 5:20 AM CST 6:37 PM CST
Moon No Moon Rise 1:17 PM CST (11/7)
Length of Visible Light 11h 04m
Length of Day
10h 05m
Last Quarter, 43% of the Moon is Illuminated
Nov 7
Last Quarter
Nov 13
New
Nov 20
First Quarter
Nov 28
Full
Dec 6
Last Quarter

Hourly Weather History & Observations

Time (CST) Temp. Windchill Dew Point Humidity Pressure Visibility Wind Dir Wind Speed Gust Speed Precip Events Conditions
12:15 AM 46.6 °F - 33.6 °F 61% 29.99 in 10.0 mi NW 15.0 mph 25.3 mph N/A   Overcast
12:35 AM 46.4 °F 39.2 °F 34.0 °F 62% 30.00 in 10.0 mi NW 18.4 mph 25.3 mph N/A   Overcast
12:55 AM 46.4 °F 40.4 °F 34.5 °F 63% 30.01 in 10.0 mi NW 13.8 mph 23.0 mph N/A   Overcast
1:15 AM 46.0 °F 39.3 °F 34.9 °F 65% 30.01 in 10.0 mi NW 16.1 mph 23.0 mph N/A   Overcast
1:35 AM 44.6 °F 38.1 °F 36.7 °F 74% 30.03 in 10.0 mi North 13.8 mph 25.3 mph N/A   Drizzle
1:55 AM 42.4 °F 34.7 °F 37.6 °F 83% 30.03 in 5.0 mi North 16.1 mph 23.0 mph N/A Rain Rain
2:15 AM 42.3 °F 35.1 °F 37.4 °F 83% 30.03 in 10.0 mi NNW 13.8 mph - N/A   Overcast
2:35 AM 42.3 °F 35.1 °F 37.4 °F 83% 30.04 in 10.0 mi NNW 13.8 mph 18.4 mph N/A   Overcast
2:55 AM 42.4 °F 35.7 °F 37.4 °F 82% 30.04 in 10.0 mi NNW 12.7 mph - N/A   Overcast
3:15 AM 42.8 °F 36.6 °F 37.6 °F 82% 30.04 in 10.0 mi NNW 11.5 mph - N/A   Overcast
3:35 AM 42.8 °F 37.0 °F 37.6 °F 82% 30.05 in 10.0 mi NNW 10.4 mph - N/A   Overcast
3:55 AM 42.8 °F 37.0 °F 37.4 °F 81% 30.05 in 10.0 mi NW 10.4 mph - N/A   Overcast
4:15 AM 42.8 °F 37.0 °F 37.6 °F 82% 30.06 in 10.0 mi NNW 10.4 mph - N/A   Overcast
4:35 AM 42.4 °F 37.5 °F 37.4 °F 82% 30.06 in 10.0 mi NNW 8.1 mph - N/A   Overcast
4:55 AM 42.1 °F 37.1 °F 37.6 °F 84% 30.07 in 10.0 mi NNW 8.1 mph - N/A   Overcast
5:15 AM 42.1 °F 36.1 °F 37.4 °F 83% 30.08 in 10.0 mi NNW 10.4 mph - N/A   Overcast
5:35 AM 42.1 °F 36.6 °F 37.4 °F 83% 30.08 in 10.0 mi NNW 9.2 mph - N/A   Overcast
5:55 AM 41.5 °F 35.9 °F 36.7 °F 83% 30.08 in 10.0 mi NNW 9.2 mph - N/A   Overcast
6:15 AM 41.2 °F 36.0 °F 36.5 °F 83% 30.09 in 10.0 mi NNW 8.1 mph - N/A   Overcast
6:35 AM 40.8 °F 35.6 °F 36.3 °F 84% 30.10 in 10.0 mi NNW 8.1 mph - N/A   Overcast
6:55 AM 40.8 °F 36.2 °F 36.5 °F 85% 30.10 in 10.0 mi NNW 6.9 mph - N/A   Overcast
7:15 AM 41.2 °F 37.3 °F 36.7 °F 84% 30.11 in 10.0 mi NNW 5.8 mph - N/A   Overcast
7:35 AM 40.5 °F 36.5 °F 36.1 °F 85% 30.12 in 10.0 mi NW 5.8 mph - N/A   Scattered Clouds
7:55 AM 41.9 °F 36.9 °F 36.9 °F 82% 30.13 in 10.0 mi NNW 8.1 mph - N/A   Clear
8:15 AM 43.2 °F 39.0 °F 37.4 °F 80% 30.13 in 10.0 mi NNW 6.9 mph - N/A   Clear
8:35 AM 44.1 °F 39.0 °F 37.4 °F 77% 30.14 in 10.0 mi NNW 9.2 mph - N/A   Clear
8:55 AM 44.6 °F 39.2 °F 37.0 °F 75% 30.14 in 10.0 mi NNW 10.4 mph - N/A   Mostly Cloudy
9:15 AM 45.0 °F 39.7 °F 36.3 °F 72% 30.14 in 10.0 mi North 10.4 mph - N/A   Overcast
9:35 AM 45.7 °F 41.0 °F 36.1 °F 69% 30.14 in 10.0 mi NNW 9.2 mph - N/A   Overcast
9:55 AM 46.4 °F 41.9 °F 35.1 °F 65% 30.15 in 10.0 mi NNW 9.2 mph - N/A   Overcast
10:15 AM 46.8 °F - 33.4 °F 60% 30.15 in 10.0 mi North 6.9 mph - N/A   Overcast
10:35 AM 46.4 °F 42.4 °F 32.5 °F 59% 30.15 in 10.0 mi North 8.1 mph - N/A   Overcast
10:55 AM 46.4 °F 44.3 °F 32.0 °F 57% 30.15 in 10.0 mi NNW 4.6 mph - N/A   Overcast
11:15 AM 46.4 °F 43.5 °F 32.0 °F 57% 30.16 in 10.0 mi North 5.8 mph - N/A   Overcast
11:35 AM 46.6 °F - 32.4 °F 58% 30.14 in 10.0 mi North 4.6 mph - N/A   Overcast
11:55 AM 46.6 °F - 32.5 °F 58% 30.14 in 10.0 mi North 3.5 mph - N/A   Overcast
12:15 PM 46.9 °F - 32.5 °F 57% 30.14 in 10.0 mi NNW 5.8 mph - N/A   Overcast
12:35 PM 46.8 °F - 32.7 °F 58% 30.14 in 10.0 mi NNW 4.6 mph - N/A   Overcast
12:55 PM 46.9 °F - 32.7 °F 58% 30.13 in 10.0 mi NW 5.8 mph - N/A   Overcast
1:15 PM 47.1 °F - 33.3 °F 59% 30.12 in 10.0 mi NNW 5.8 mph - N/A   Overcast
1:35 PM 47.3 °F - 33.8 °F 59% 30.11 in 10.0 mi Calm Calm - N/A   Overcast
1:55 PM 47.1 °F - 33.4 °F 59% 30.11 in 10.0 mi Calm Calm - N/A   Overcast
2:15 PM 47.1 °F - 32.9 °F 58% 30.10 in 10.0 mi Calm Calm - N/A   Overcast
2:35 PM 47.3 °F - 32.9 °F 57% 30.10 in 10.0 mi Calm Calm - N/A   Overcast
2:55 PM 47.5 °F - 32.7 °F 57% 30.11 in 10.0 mi Calm Calm - N/A   Overcast
3:15 PM 47.7 °F - 33.1 °F 57% 30.11 in 10.0 mi Calm Calm - N/A   Overcast
3:35 PM 47.7 °F - 32.9 °F 57% 30.11 in 10.0 mi West 3.5 mph - N/A   Overcast
3:55 PM 47.7 °F - 32.5 °F 56% 30.11 in 10.0 mi Calm Calm - N/A   Overcast
4:15 PM 48.0 °F - 32.5 °F 55% 30.11 in 10.0 mi Calm Calm - N/A   Overcast
4:35 PM 47.3 °F - 33.1 °F 58% 30.11 in 10.0 mi SE 3.5 mph - N/A   Overcast
4:55 PM 45.9 °F 43.6 °F 33.4 °F 62% 30.11 in 10.0 mi ESE 4.6 mph - N/A   Scattered Clouds
5:15 PM 43.0 °F 40.3 °F 33.3 °F 69% 30.11 in 10.0 mi ESE 4.6 mph - N/A   Clear
5:35 PM 45.3 °F 42.3 °F 33.3 °F 63% 30.10 in 10.0 mi East 5.8 mph - N/A   Clear
5:55 PM 41.5 °F 38.6 °F 32.9 °F 71% 30.10 in 10.0 mi ESE 4.6 mph - N/A   Clear
6:15 PM 40.3 °F 37.1 °F 32.0 °F 72% 30.11 in 10.0 mi SE 4.6 mph - N/A   Clear
6:35 PM 39.4 °F 35.2 °F 32.0 °F 75% 30.11 in 10.0 mi ESE 5.8 mph - N/A   Clear
6:55 PM 38.3 °F 33.9 °F 32.0 °F 78% 30.10 in 10.0 mi SE 5.8 mph - N/A   Clear
7:15 PM 37.8 °F 32.5 °F 32.0 °F 80% 30.10 in 10.0 mi ESE 6.9 mph - N/A   Clear
7:35 PM 37.6 °F 32.3 °F 32.0 °F 80% 30.10 in 10.0 mi SE 6.9 mph - N/A   Clear
7:55 PM 37.0 °F 31.6 °F 31.8 °F 81% 30.10 in 10.0 mi SE 6.9 mph - N/A   Clear
8:15 PM 37.8 °F 32.5 °F 32.0 °F 80% 30.10 in 10.0 mi SE 6.9 mph - N/A   Clear
8:35 PM 36.7 °F 30.5 °F 31.6 °F 82% 30.10 in 10.0 mi SE 8.1 mph - N/A   Clear
8:55 PM 36.9 °F 30.7 °F 32.0 °F 83% 30.10 in 10.0 mi SE 8.1 mph - N/A   Clear
9:15 PM 37.2 °F 31.2 °F 32.0 °F 81% 30.10 in 10.0 mi SE 8.1 mph - N/A   Clear
9:35 PM 36.3 °F 30.8 °F 31.6 °F 83% 30.10 in 10.0 mi SE 6.9 mph - N/A   Clear
9:55 PM 36.0 °F 31.1 °F 31.6 °F 84% 30.11 in 10.0 mi SE 5.8 mph - N/A   Clear
10:15 PM 36.5 °F 31.0 °F 31.6 °F 83% 30.11 in 10.0 mi SSE 6.9 mph - N/A   Clear
10:35 PM 36.5 °F 31.0 °F 31.6 °F 83% 30.11 in 10.0 mi SSE 6.9 mph - N/A   Clear
10:55 PM 36.0 °F 31.1 °F 31.5 °F 84% 30.11 in 10.0 mi SE 5.8 mph - N/A   Clear
11:15 PM 35.8 °F 30.1 °F 31.5 °F 84% 30.11 in 10.0 mi SSE 6.9 mph - N/A   Clear
11:55 PM 36.3 °F 30.8 °F 31.6 °F 83% 30.11 in 10.0 mi SSE 6.9 mph - N/A   Clear